Miscellaneous Local Product
Issued by NWS North Platte, NE

Home | Current Version | Previous Version | Graphics & Text | Print | Product List | Glossary On
Versions: 1 2 3 4 5 6 7 8 9 10 11 12 13 14 15 16 17 18 19 20 21 22 23 24 25 26 27 28 29 30 31 32 33 34 35 36 37 38 39 40 41 42 43 44 45 46 47 48 49 50
000
AXUS43 KLBF 010810
MISLBF


WESTERN AND NORTH CENTRAL NEBRASKA HOURLY WEATHER ROUNDUP
NATIONAL WEATHER SERVICE NORTH PLATTE NE
200 AM CST SUN MAR 01 2015

***STATIONS NOT REPORTING VARIABLES SUCH AS SKY/WEATHER OR
PRESSURE ARE PROVIDED BY THE NEBRASKA DEPARTMENT OF
ROADS...RAWS...AND APRS NETWORKS...AND ARE NOT UNDER
NATIONAL WEATHER SERVICE QUALITY CONTROL***

...OBSERVATIONS IN AND NEAR THE EASTERN PANHANDLE OF NEBRASKA...

CITY           SKY/WX    TMP DP  RH WIND       PRES   REMARKS
PINE RIDGE     LGT SNOW  18   9  68 NE5       30.19R WCI  11
CHADRON        CLOUDY    19  10  68 N8        30.20R WCI   9
ALLIANCE       CLOUDY    18  10  71 NE9       30.12R WCI   7
SIDNEY         CLOUDY    20  14  77 S5        30.10R WCI  13
WHITECLAY        N/A     17   6  63 N5          N/A  WCI  10
CRESCENT LAKE    N/A     19  11  72 N5          N/A  WCI  12
LISCO            N/A     24  14  65 CALM        N/A
BIG SPRINGS      N/A     21  15  76 CALM        N/A
LEWELLEN         N/A     17  10  71 CALM        N/A
$$

...OBSERVATIONS IN NORTH CENTRAL NEBRASKA...

CITY           SKY/WX    TMP DP  RH WIND       PRES   REMARKS
VALENTINE      MOCLDY    17   5  59 NE3       30.23R
THEDFORD       PTCLDY    16  11  81 CALM      30.19R
AINSWORTH      PTCLDY    15   6  65 NW5       30.21S WCI   8
O`NEILL        PTCLDY    18  11  74 N6        30.23S WCI  10
ORD            PTCLDY    12   7  80 CALM      30.24R
BROKEN BOW     PTCLDY    17  12  80 CALM      30.21R
BROWNLEE         N/A     30  21  69 N8          N/A  WCI  23
SPRINGVIEW       N/A     13   4  66 CALM        N/A
BREWSTER         N/A     19  15  82 CALM        N/A
ROSE             N/A     20  14  76 N5          N/A  WCI  14
NEWPORT          N/A     22  13  70 W5          N/A  WCI  15
SARGENT          N/A     17  13  84 CALM        N/A
COMSTOCK         N/A     22  18  85 SW7         N/A  WCI  13
CHAMBERS         N/A     11   2  66 CALM        N/A
EWING            N/A     13   9  84 CALM        N/A
$$

...OBSERVATIONS IN SOUTHWEST NEBRASKA AND FAR NORTHEAST COLORADO...

CITY           SKY/WX    TMP DP  RH WIND       PRES   REMARKS
WRAY           PTSUNNY   18  14  86 CALM      30.13R
IMPERIAL         N/A     18  11  74 SE5       30.16R WCI  11
OGALLALA       CLOUDY    20  13  74 SW5       30.17S WCI  14
NORTH PLATTE   CLOUDY    17  12  80 CALM      30.20R
MCCOOK         CLOUDY    21  15  78 S5        30.21R WCI  15
LEXINGTON      PTCLDY    15  12  88 CALM      30.22R
PAXTON           N/A     20  14  77 SW3         N/A
BRADY            N/A     15  11  82 CALM        N/A
GOTHENBURG       N/A     17  13  84 CALM        N/A
CALLAWAY         N/A     16  13  87 SW5         N/A  WCI   9
$$

...NORTH PLATTE AREA...

CITY           SKY/WX    TMP DP  RH WIND       PRES   REMARKS
AIRPORT        CLOUDY    17  12  80 CALM      30.20R
DOWNTOWN         N/A     18  12  76 CALM        N/A
$$

...SOME WEATHER OBSERVATIONS FROM AROUND THE REGION...

CITY           SKY/WX    TMP DP  RH WIND       PRES   REMARKS
DENVER         PTCLDY    11   7  84 S7        30.02R WCI   0
LARAMIE        LGT SNOW  15  11  83 E3        29.91R FOG
CHEYENNE       LGT SNOW  17  13  84 N3        29.98R FOG
SCOTTSBLUFF    CLOUDY    23  13  65 NE6       30.11R WCI  16
RAPID CITY     CLOUDY    14   9  80 CALM      30.19S
PIERRE         PTCLDY    11   3  70 SW8       30.25S WCI  -1
WINNER         CLOUDY    16   2  54 W5        30.25R WCI   9
SIOUX FALLS    CLEAR     11   7  84 W3        30.24S
OMAHA          CLOUDY    23  15  71 SW10      30.36S WCI  12
GRAND ISLAND   PTCLDY    16  12  84 S8        30.27F WCI   5
KANSAS CITY    CLOUDY    22  20  92 CALM      30.35S
WICHITA        FOG       22  21  96 CALM      30.33S VSB 1
HAYS           PTCLDY    16   7  67 CALM      30.26F
LIBERAL        CLOUDY    21  18  86 SE7       30.20R WCI  13
GOODLAND       CLOUDY    19  17  92 S8        30.14R WCI   9
$$



USA.gov is the U.S. government's official web portal to all federal, state and local government web resources and services.